SCP
0 0 0 0 0 0 0 0 0 0 0 0 0 0 0 0 0 0 0 0 0 0 0 -0 -0 -0 -0 -0 0 0 0 0 0 0 0 0 0 0
0 0 0 0 0 0 0 0 0 0 0 0 0 0 0 0 0 0 0 0 0 0 -0 -0 -0 -0 -0 0 -0 0 0 0 0 0 0 0 0 0
0 0 0 0 0 0 0 0 0 0 0 0 0 0 0 0 0 0 0 0 0 0 -0 -0 -0 -0 -0 -0 0 0 0 0 0 0 0 0 0 0
0 0 0 0 0 0 0 0 0 0 0 0 0 0 0 0 0 0 0 0 0 -0 -0 -0 -0 -0 -0 0 0 0 0 0 0 0 0 0 0 0
0 0 0 0 0 0 0 0 0 0 0 0 0 0 0 0 0 0 0 0 0 0 -0 -0 -0 -0 -0 0 0 0 0 0 0 0 0 0 0 0
0 0 0 0 0 0 0 0 0 0 0 0 0 0 0 0 0 0 0 0 0 0 -0 -0 -0 0 0 0 0 0 0 0 0 0 0 0 0 0
0 0 0 0 0 0 0 0 0 0 0 0 0 0 0 0 0 0 0 0 0 0 0 0 0 0 0 0 0 0 0 0 0 0 0 0 0 0
0 0 0 0 0 0 0 0 0 0 0 0 0 0 0 0 0 0 0 0 0 -0 0 0 0 0 0 0 0 0 0 0 0 0 0 0 0 0
0 0 0 0 0 0 0 0 0 0 0 -0 -0 0 0 -0 -0 0 0 0 0 -0 0 0 0 0 0 0 0 0 0 0 0 0 0 0 0 0
0 0 0 0 0 0 0 0 0 0 -0 -0 -0 -0 0 -0 -0 0 -0 0 0 0 0 0 0 0 0 0 0 0 0 0 0 0 0 0 0 0
0 0 0 0 0 0 0 0 0 0 -0 -0 -0 -0 -0 -0 -0 -0 0 0 0 0 -0 0 0 0 0 0 0 0 0 0 0 0 0 0 0 0
0 0 0 0 0 0 0 0 0 -0 0 -0 -0 -0 -0 -0 -0 -0 0 0 0 0 0 0 0 0 0 0 0 0 0 0 0 0 0 0 0 0
0 0 0 0 0 0 0 0 -0 -0 -0 -0 0 0 0 0 0 0 0 0 0 -0 0 0 0 0 0 0 0 0 0 0 0 0 0 0 0 0
0 0 0 0 0 0 0 0 -0 0 0 0 0 0 0 0 0 0 0 0 0 0 0 0 0 0 0 0 0 0 0 0 0 0 0 0 0 0
0 0 0 0 0 0 0 0 0 0 0 0 0 0 0 0 0 0 0 0 0 0 0 0 0 0 0 0 0 0 0 0 0 0 0 0 0 0
0 0 0 0 0 0 0 0 0 0 0 0 0 0 0 0 0 0 0 0 0 0 0 0 0 0 0 0 0 0 0 0 0 0 0 0 0 0
0 0 0 0 0 0 0 0 0 0 0 0 0 0 0 0 0 0 0 0 0 0 0 0 0 0 0 0 0 0 0 0 0 0 0 0 0 0
0 0 0 0 0 0 0 0 0 0 0 0 0 0 0 0 0 0 0 0 0 0 0 0 0 0 0 0 0 0 0 0 0 0 0 0 0 0
0 0 0 0 0 0 0 0 0 0 0 0 0 0 0 0 0 0 0 0 0 0 0 0 0 0 0 0 0 0 0 0 0 0 0 0 0 0
0 0 0 0 0 0 0 0 0 0 0 0 0 0 0 0 0 0 0 0 0 0 0 0 0 0 0 0 0 0 0 0 0 0 0 0 0 0
0 0 0 0 0 0 0 0 0 0 0 0 0 0 0 0 0 0 0 0 0 0 0 0 0 0 0 0 0 0 0 0 0 0 0 0 0 0
0 0 0 0 0 0 0 0 0 0 0 0 0 0 0 0 0 0 0 0 0 0 0 0 0 0 0 0 0 0 0 0 0 0 0 0 0 0
0 0 0 0 0 0 0 0 0 0 0 0 0 0 0 0 0 0 0 0 0 0 0 0 0 0 0 0 0 0 0 0 0 0 0 0 0 0
Wind_Speed_500mb
30 29 24 28 28 22 27 35 24 14 13 19 17 13 10 8 7 8 9 11 13 16 16 18 19 24 30 31 34 44 47 50 55 55 62 65 63 68
41 40 37 43 26 21 24 9 19 28 22 18 15 11 13 10 7 0 4 11 12 14 13 15 22 30 33 29 35 40 44 45 53 55 57 57 58 61
22 17 12 21 33 29 25 17 16 20 16 15 14 16 17 12 4 6 6 8 11 13 12 20 28 33 35 33 38 43 47 48 54 57 58 56 59 59
20 20 14 21 15 22 18 14 14 16 16 16 21 24 21 15 13 11 10 9 13 11 15 22 32 33 39 39 40 42 46 49 50 52 53 53 55 56
21 19 17 21 19 19 8 9 14 12 12 10 11 21 21 20 17 17 13 11 13 14 18 25 32 33 42 42 42 37 38 38 43 45 46 47 49 51
21 20 15 11 12 10 11 12 12 16 15 14 13 19 23 25 24 18 15 14 12 13 18 26 27 27 37 39 35 34 34 36 38 41 44 46 48 50
15 15 14 11 13 10 6 6 8 12 15 15 16 21 26 28 26 26 20 15 13 15 20 23 23 19 24 34 28 27 29 30 33 36 40 43 46 48
13 14 13 12 11 7 6 7 10 11 14 15 18 22 25 29 26 25 21 20 14 14 18 23 21 18 17 25 19 19 23 25 28 32 37 41 43 45
10 9 7 8 8 5 7 9 11 12 13 14 14 17 20 19 23 25 25 14 9 18 18 21 18 12 15 15 15 15 18 22 23 28 33 36 38 40
9 7 5 6 8 7 10 12 13 14 14 14 19 20 23 25 24 20 19 18 17 12 12 16 16 9 8 12 11 13 14 16 18 24 27 29 32 35
7 6 10 13 13 13 11 12 12 14 18 22 24 23 26 26 24 23 23 23 19 15 8 8 16 11 5 2 7 8 13 17 18 19 19 23 27 31
11 10 12 13 14 14 14 14 14 14 19 24 25 25 26 24 22 24 20 19 14 11 10 11 12 11 7 8 5 3 4 11 18 12 12 16 22 27
15 16 13 13 14 14 14 16 17 18 22 23 24 25 27 29 28 27 24 22 16 11 11 13 14 15 11 11 11 9 6 8 13 18 16 15 17 21
16 16 17 15 16 16 18 20 22 24 25 26 29 29 28 27 28 28 27 23 20 18 16 16 15 19 18 17 15 11 11 12 11 13 16 18 19 19
20 19 20 19 21 22 24 24 24 25 27 29 31 32 32 32 32 30 28 26 26 25 22 19 20 20 20 21 19 17 12 13 14 14 15 18 11 13
25 25 24 23 25 26 27 29 30 31 32 33 34 37 38 37 36 35 34 33 32 31 27 24 24 24 24 25 23 21 19 16 12 18 17 19 10 12
30 33 32 30 30 30 32 33 36 38 39 40 40 40 41 43 43 42 41 39 38 37 33 30 31 31 30 27 28 25 25 26 21 21 23 20 14 13
38 39 36 34 33 34 36 39 41 43 43 43 44 44 46 47 49 49 48 47 46 44 41 37 38 38 37 35 33 29 31 30 25 24 24 24 19 21
44 43 41 39 37 37 38 39 39 40 44 48 51 51 52 55 57 59 57 56 55 53 50 48 48 47 45 48 40 36 36 32 31 26 24 25 25 22
48 44 44 43 42 41 41 41 40 42 45 48 52 53 53 55 58 59 59 58 58 58 58 59 60 57 52 50 50 47 38 37 35 33 29 28 29 28
52 48 44 43 41 43 44 44 46 47 49 51 51 53 53 55 58 59 59 59 60 62 66 68 62 54 52 56 61 57 50 43 39 39 36 33 33 32
59 55 50 46 43 44 45 47 49 52 54 56 57 57 55 56 60 60 60 61 61 63 66 63 61 59 62 66 67 63 59 53 48 43 43 40 36 24
65 61 58 56 53 51 50 51 53 53 54 55 56 56 59 61 61 63 63 63 63 63 64 65 64 65 68 69 67 65 66 63 61 55 51 46 45 41
Wind_Direction_500mb
220 222 237 251 260 280 262 271 251 245 243 253 257 268 243 224 263 313 339 354 10 16 24 27 34 44 54 58 60 56 51 53 51 51 51 52 49 46
210 218 243 253 244 280 265 252 207 231 222 226 239 235 201 228 259 29 30 39 34 44 39 37 41 48 59 58 56 55 52 55 54 54 51 53 50 47
190 158 239 226 208 231 245 245 231 236 244 215 215 199 200 218 209 132 106 69 58 55 46 47 52 61 61 62 63 58 58 58 54 52 48 43 40 39
183 212 217 225 238 241 251 235 238 236 237 218 187 188 191 192 167 153 118 91 71 68 61 59 69 70 67 69 69 64 63 57 53 51 49 46 42 41
218 226 236 242 256 239 187 191 215 222 224 215 209 202 197 178 172 161 137 108 81 71 72 73 81 79 75 74 75 67 64 54 54 51 44 41 36 34
222 218 213 195 189 181 217 227 212 210 213 218 216 207 190 184 177 163 152 127 106 95 86 84 90 85 89 81 71 68 68 59 49 42 37 35 35 36
168 165 167 174 196 203 217 240 222 224 215 225 224 200 194 185 180 173 164 143 131 104 101 97 94 95 88 84 67 65 59 54 45 39 38 35 31 33
160 163 172 194 217 218 209 206 207 228 230 220 211 194 185 181 185 178 173 162 129 126 124 114 106 93 76 76 61 52 47 49 46 41 36 33 35 34
169 181 166 174 196 199 221 220 224 219 210 201 193 179 180 176 188 183 181 192 172 141 138 128 123 107 81 58 39 33 32 48 45 37 33 34 32 33
174 156 179 198 218 238 242 239 225 200 187 184 174 170 172 176 174 176 187 184 170 175 156 144 147 139 63 21 21 359 19 43 39 33 31 33 31 28
194 236 233 237 249 247 223 219 211 189 179 177 172 168 173 172 169 176 183 180 187 191 196 181 172 164 143 8 340 359 14 17 39 34 32 26 23 19
227 237 233 242 237 229 218 203 190 182 182 181 174 176 179 176 177 175 185 190 196 197 209 204 194 185 215 241 260 276 349 354 358 19 15 13 16 12
251 241 243 248 235 221 210 201 192 187 190 184 187 190 189 189 191 189 189 198 199 233 222 216 225 229 251 259 255 247 264 303 341 352 351 354 8 9
254 251 251 240 223 220 217 206 198 195 196 198 202 204 203 204 204 203 207 208 213 218 219 225 244 242 256 255 255 260 233 262 297 313 332 340 351 356
261 262 258 251 230 218 214 215 212 213 215 216 216 218 216 214 213 213 214 217 221 219 219 228 236 239 244 247 264 271 244 267 271 288 298 312 324 343
259 257 255 248 239 233 227 224 222 220 220 221 226 229 230 228 227 226 225 226 230 230 227 233 240 243 248 248 257 262 257 251 277 281 285 300 326 340
255 257 262 261 253 247 242 237 234 231 229 228 229 232 236 238 236 235 236 237 239 242 240 239 242 247 249 250 254 256 261 264 264 261 280 300 313 320
254 257 260 259 255 256 253 247 243 243 241 240 239 238 239 243 245 243 245 247 247 249 251 249 250 249 252 254 257 255 259 264 266 259 266 271 287 303
257 261 263 263 263 262 262 262 260 257 253 249 245 242 241 241 242 243 245 246 248 252 254 254 253 252 253 256 263 257 258 262 262 259 261 267 278 286
270 268 268 266 264 263 261 262 262 261 259 256 256 256 254 254 253 253 255 258 258 258 257 256 256 256 258 261 260 260 258 260 260 259 255 259 269 276
271 272 273 273 272 272 272 269 268 264 262 261 259 258 255 255 256 256 257 257 257 256 256 259 263 262 256 254 253 257 258 257 258 257 255 253 259 267
270 272 275 275 274 273 271 270 268 267 266 265 264 264 263 261 260 260 259 259 259 261 264 264 263 260 255 254 257 257 257 255 257 256 256 252 251 254
271 272 273 271 268 266 266 265 264 265 266 267 267 266 265 263 262 262 262 261 260 259 261 264 263 259 258 256 256 255 255 255 256 255 256 253 251 247
Wind_Speed_850mb
30 29 24 28 28 22 27 35 24 14 13 19 17 13 10 8 7 8 9 11 13 16 16 18 19 24 30 31 34 44 47 50 55 55 62 65 63 68
41 40 37 43 26 21 24 9 19 28 22 18 15 11 13 10 7 0 4 11 12 14 13 15 22 30 33 29 35 40 44 45 53 55 57 57 58 61
22 17 12 21 33 29 25 17 16 20 16 15 14 16 17 12 4 6 6 8 11 13 12 20 28 33 35 33 38 43 47 48 54 57 58 56 59 59
20 20 14 21 15 22 18 14 14 16 16 16 21 24 21 15 13 11 10 9 13 11 15 22 32 33 39 39 40 42 46 49 50 52 53 53 55 56
21 19 17 21 19 19 8 9 14 12 12 10 11 21 21 20 17 17 13 11 13 14 18 25 32 33 42 42 42 37 38 38 43 45 46 47 49 51
21 20 15 11 12 10 11 12 12 16 15 14 13 19 23 25 24 18 15 14 12 13 18 26 27 27 37 39 35 34 34 36 38 41 44 46 48 50
15 15 14 11 13 10 6 6 8 12 15 15 16 21 26 28 26 26 20 15 13 15 20 23 23 19 24 34 28 27 29 30 33 36 40 43 46 48
13 14 13 12 11 7 6 7 10 11 14 15 18 22 25 29 26 25 21 20 14 14 18 23 21 18 17 25 19 19 23 25 28 32 37 41 43 45
10 9 7 8 8 5 7 9 11 12 13 14 14 17 20 19 23 25 25 14 9 18 18 21 18 12 15 15 15 15 18 22 23 28 33 36 38 40
9 7 5 6 8 7 10 12 13 14 14 14 19 20 23 25 24 20 19 18 17 12 12 16 16 9 8 12 11 13 14 16 18 24 27 29 32 35
7 6 10 13 13 13 11 12 12 14 18 22 24 23 26 26 24 23 23 23 19 15 8 8 16 11 5 2 7 8 13 17 18 19 19 23 27 31
11 10 12 13 14 14 14 14 14 14 19 24 25 25 26 24 22 24 20 19 14 11 10 11 12 11 7 8 5 3 4 11 18 12 12 16 22 27
15 16 13 13 14 14 14 16 17 18 22 23 24 25 27 29 28 27 24 22 16 11 11 13 14 15 11 11 11 9 6 8 13 18 16 15 17 21
16 16 17 15 16 16 18 20 22 24 25 26 29 29 28 27 28 28 27 23 20 18 16 16 15 19 18 17 15 11 11 12 11 13 16 18 19 19
20 19 20 19 21 22 24 24 24 25 27 29 31 32 32 32 32 30 28 26 26 25 22 19 20 20 20 21 19 17 12 13 14 14 15 18 11 13
25 25 24 23 25 26 27 29 30 31 32 33 34 37 38 37 36 35 34 33 32 31 27 24 24 24 24 25 23 21 19 16 12 18 17 19 10 12
30 33 32 30 30 30 32 33 36 38 39 40 40 40 41 43 43 42 41 39 38 37 33 30 31 31 30 27 28 25 25 26 21 21 23 20 14 13
38 39 36 34 33 34 36 39 41 43 43 43 44 44 46 47 49 49 48 47 46 44 41 37 38 38 37 35 33 29 31 30 25 24 24 24 19 21
44 43 41 39 37 37 38 39 39 40 44 48 51 51 52 55 57 59 57 56 55 53 50 48 48 47 45 48 40 36 36 32 31 26 24 25 25 22
48 44 44 43 42 41 41 41 40 42 45 48 52 53 53 55 58 59 59 58 58 58 58 59 60 57 52 50 50 47 38 37 35 33 29 28 29 28
52 48 44 43 41 43 44 44 46 47 49 51 51 53 53 55 58 59 59 59 60 62 66 68 62 54 52 56 61 57 50 43 39 39 36 33 33 32
59 55 50 46 43 44 45 47 49 52 54 56 57 57 55 56 60 60 60 61 61 63 66 63 61 59 62 66 67 63 59 53 48 43 43 40 36 24
65 61 58 56 53 51 50 51 53 53 54 55 56 56 59 61 61 63 63 63 63 63 64 65 64 65 68 69 67 65 66 63 61 55 51 46 45 41
Wind_Direction_850mb
220 222 237 251 260 280 262 271 251 245 243 253 257 268 243 224 263 313 339 354 10 16 24 27 34 44 54 58 60 56 51 53 51 51 51 52 49 46
210 218 243 253 244 280 265 252 207 231 222 226 239 235 201 228 259 29 30 39 34 44 39 37 41 48 59 58 56 55 52 55 54 54 51 53 50 47
190 158 239 226 208 231 245 245 231 236 244 215 215 199 200 218 209 132 106 69 58 55 46 47 52 61 61 62 63 58 58 58 54 52 48 43 40 39
183 212 217 225 238 241 251 235 238 236 237 218 187 188 191 192 167 153 118 91 71 68 61 59 69 70 67 69 69 64 63 57 53 51 49 46 42 41
218 226 236 242 256 239 187 191 215 222 224 215 209 202 197 178 172 161 137 108 81 71 72 73 81 79 75 74 75 67 64 54 54 51 44 41 36 34
222 218 213 195 189 181 217 227 212 210 213 218 216 207 190 184 177 163 152 127 106 95 86 84 90 85 89 81 71 68 68 59 49 42 37 35 35 36
168 165 167 174 196 203 217 240 222 224 215 225 224 200 194 185 180 173 164 143 131 104 101 97 94 95 88 84 67 65 59 54 45 39 38 35 31 33
160 163 172 194 217 218 209 206 207 228 230 220 211 194 185 181 185 178 173 162 129 126 124 114 106 93 76 76 61 52 47 49 46 41 36 33 35 34
169 181 166 174 196 199 221 220 224 219 210 201 193 179 180 176 188 183 181 192 172 141 138 128 123 107 81 58 39 33 32 48 45 37 33 34 32 33
174 156 179 198 218 238 242 239 225 200 187 184 174 170 172 176 174 176 187 184 170 175 156 144 147 139 63 21 21 359 19 43 39 33 31 33 31 28
194 236 233 237 249 247 223 219 211 189 179 177 172 168 173 172 169 176 183 180 187 191 196 181 172 164 143 8 340 359 14 17 39 34 32 26 23 19
227 237 233 242 237 229 218 203 190 182 182 181 174 176 179 176 177 175 185 190 196 197 209 204 194 185 215 241 260 276 349 354 358 19 15 13 16 12
251 241 243 248 235 221 210 201 192 187 190 184 187 190 189 189 191 189 189 198 199 233 222 216 225 229 251 259 255 247 264 303 341 352 351 354 8 9
254 251 251 240 223 220 217 206 198 195 196 198 202 204 203 204 204 203 207 208 213 218 219 225 244 242 256 255 255 260 233 262 297 313 332 340 351 356
261 262 258 251 230 218 214 215 212 213 215 216 216 218 216 214 213 213 214 217 221 219 219 228 236 239 244 247 264 271 244 267 271 288 298 312 324 343
259 257 255 248 239 233 227 224 222 220 220 221 226 229 230 228 227 226 225 226 230 230 227 233 240 243 248 248 257 262 257 251 277 281 285 300 326 340
255 257 262 261 253 247 242 237 234 231 229 228 229 232 236 238 236 235 236 237 239 242 240 239 242 247 249 250 254 256 261 264 264 261 280 300 313 320
254 257 260 259 255 256 253 247 243 243 241 240 239 238 239 243 245 243 245 247 247 249 251 249 250 249 252 254 257 255 259 264 266 259 266 271 287 303
257 261 263 263 263 262 262 262 260 257 253 249 245 242 241 241 242 243 245 246 248 252 254 254 253 252 253 256 263 257 258 262 262 259 261 267 278 286
270 268 268 266 264 263 261 262 262 261 259 256 256 256 254 254 253 253 255 258 258 258 257 256 256 256 258 261 260 260 258 260 260 259 255 259 269 276
271 272 273 273 272 272 272 269 268 264 262 261 259 258 255 255 256 256 257 257 257 256 256 259 263 262 256 254 253 257 258 257 258 257 255 253 259 267
270 272 275 275 274 273 271 270 268 267 266 265 264 264 263 261 260 260 259 259 259 261 264 264 263 260 255 254 257 257 257 255 257 256 256 252 251 254
271 272 273 271 268 266 266 265 264 265 266 267 267 266 265 263 262 262 262 261 260 259 261 264 263 259 258 256 256 255 255 255 256 255 256 253 251 247